Welcome to the New NWS' Forecast!
Most changes are behind the scenes, but click here for differences you might notice.
Latest weather observations around

Hot Springs, Memorial Field Airport (KHOT)

Using English Units (Switch to International System of Units)
Date/ Time (CDT) Wind (mph) Vis. (mi) Weather Sky Cond. Temp (°F) Rel. Humidity Wind Chill (°F) Heat Index (°F) Pressure Precip. (in)
Air Dwpt 6 hour Altimeter (inHg) Sea level (inHg) 1 hr 3 hr 6 hr
Max Min
Apr 28 06:40 E 7 10 Cloudy SCT022 BKN028 OVC043 60 56     86%     29.74        
Apr 28 05:53 E 8 10 Cloudy FEW023 OVC031 60 56     86%     29.73 29.72      
Apr 28 04:53 E 8 10 Clear CLR 58 55     90%     29.72 29.71      
Apr 28 03:53 E 8 10 Clear CLR 57 55     93%     29.73 29.71      
Apr 28 02:53 E 6 10 Clear CLR 58 55     90%     29.73 29.71      
Apr 28 01:53 E 8 10 Clear CLR 57 55     93%     29.75 29.74      
Apr 28 00:53 E 7 10 Clear CLR 59 54     83%     29.76 29.75      
Apr 27 23:53 ESE 5 10 Clear CLR 60 55     83%     29.77 29.75      
Apr 27 22:53 E 8 10 Clear CLR 60 54     80%     29.76 29.75      
Apr 27 21:53 E 7 10 Clear CLR 62 53     72%     29.76 29.75      
Apr 27 20:53 E 7 10 Clear CLR 63 53     70%     29.73 29.72      
Apr 27 19:53 ESE 6 10 Clear CLR 66 53     63%     29.73 29.72      
Apr 27 18:53 SE 11 10 Clear CLR 69 51     53%     29.72 29.71      
Apr 27 17:53 SE 7 10 Clear CLR 70 52     53%     29.74 29.73      
Apr 27 16:53 S 8 10 Clear CLR 70 50     49%     29.75 29.74      
Apr 27 15:53 3 10 Clear CLR 69 49     49%     29.78 29.77      
Apr 27 14:53 5 10 Clear CLR 68 50     53%     29.8 29.79      
Apr 27 13:53 3 10 Clear CLR 66 49     54%     29.84 29.83      
Apr 27 12:53 6 10 Clear CLR 65 48     54%     29.85 29.84      
Apr 27 11:53 E 8 10 Clear CLR 62 48     60%     29.84 29.83      
Apr 27 10:53 ESE 3 10 Clear CLR 59 46     62%     29.84 29.84      
Apr 27 09:53 Calm 10 Clear CLR 56 47     72%     29.84 29.83      
Apr 27 08:53 Calm 10 Clear CLR 51 48     89%     29.83 29.82      
Apr 27 07:53 Calm 10 Clear CLR 49 47     93%     29.81 29.8      
Apr 27 06:53 Calm 10 Clear CLR 46 44     93%     29.79 29.79      
Apr 27 05:53 Calm 10 Clear CLR 45 44     97%     29.78 29.78      
Apr 27 04:53 Calm 10 Clear CLR 46 45     96%     29.75 29.75      
Apr 27 03:53 Calm 10 Clear CLR 46 45     96%     29.75 29.74      
Apr 27 02:53 WSW 3 10 Clear CLR 47 45     93% 46   29.74 29.73      
Apr 27 01:53 WNW 3 10 Clear CLR 49 46     90% 48   29.73 29.72      
Apr 27 00:53 WNW 7 10 Clear CLR 50 46     86% 47   29.74 29.73      
Apr 27 00:32 7 10 Partly Cloudy SCT022 51 46     83%     29.74        
Apr 26 23:53 6 10 Cloudy OVC017 52 47     83%     29.72 29.71      
Apr 26 22:53 NNW 13 10 Cloudy OVC019 52 47     83%     29.7 29.69      
Apr 26 22:07 NW 10 10 Cloudy OVC015 53 49     86%     29.68        
Apr 26 21:53 WNW 15 10 Cloudy OVC014 53 50     89%     29.67 29.65      
Apr 26 20:53 WNW 6 10 Cloudy OVC012 54        %     29.62 29.61      
Apr 26 20:45 WNW 9 10 Cloudy OVC010 54        %     29.61        
Apr 26 19:53 W 7 10 Cloudy OVC008 56 54     93%     29.58 29.56      
Apr 26 18:53 WNW 8 10 Cloudy OVC007 58 57     97%     29.54 29.52     2
Apr 26 17:53 NW 10 4 Fog/Mist BKN008 BKN018 OVC100 59 58     96%     29.49 29.47 0    
Apr 26 17:46 NNW 13 6 Light Rain and Fog/Mist SCT007 BKN014 OVC100 61 60     97%     29.47   0    
Apr 26 17:33 WNW 7 8 Light Rain FEW004 SCT018 OVC100 62 62     100%     29.46   0    
Apr 26 17:20 NW 3 3 Light Rain and Fog/Mist SCT004 BKN012 OVC100 63 63     100%     29.47   0    
Apr 26 17:11 Calm 2 Thunderstorms and Rain and Fog/Mist BKN004 OVC010 63 63     100%     29.49   0    
Apr 26 17:03 SSW 3 2.5 Thunderstorms and Rain and Fog/Mist BKN005 BKN012 OVC075 63 63     100%     29.51   0    
Apr 26 16:53 SW 5 2.5 Rain and Fog/Mist SCT005 BKN011 OVC085 62 62     100%     29.51 29.5 0    
Apr 26 16:38 NNW 3 2.5 Rain and Fog/Mist SCT012 BKN085 OVC100 62 62     100%     29.47   0    
Apr 26 16:31 WSW 6 3 Light Rain and Fog/Mist BKN012 BKN065 OVC100 62 62     100%     29.47   0    
Apr 26 15:53 Calm 10 Light Rain FEW013 SCT080 OVC100 62 62     100%     29.43   0 1  
Apr 26 15:42 ESE 5 6 Light Rain and Fog/Mist FEW012 BKN090 OVC110 62 62     100%     29.45   0    
Apr 26 15:24 NW 6 3 Thunderstorms and Rain and Fog/Mist FEW048 BKN075 OVC100 62 62     100%     29.44   0    
Apr 26 15:19 N 5 1.25 Thunderstorms and Rain and Fog/Mist FEW014 BKN075 OVC095 62 62     100%     29.47   0    
Apr 26 15:11 E 6 3 Thunderstorms and Rain and Fog/Mist FEW014 BKN044 OVC095 62 62     100%     29.5   0    
Apr 26 15:06 SSE 6 1 Thunderstorms and Rain and Fog/Mist SCT012 BKN041 OVC085 62 62     100%     29.51   0    
Apr 26 14:57 6 0.75 Thunderstorms and Heavy Rain and Fog/Mist FEW004 BKN014 OVC025 62 62     100%     29.5   0    
Apr 26 14:53 NW 7 2 Thunderstorms and Heavy Rain and Fog/Mist FEW004 BKN013 OVC031 62 62     100%     29.5 29.48 1    
Apr 26 14:48 WSW 8 2.5 Thunderstorms and Rain and Fog/Mist FEW004 BKN013 OVC080 63 63     100%     29.51   1    
Apr 26 14:40 5 3 Thunderstorms and Rain and Fog/Mist FEW004 BKN013 OVC075 62 62     100%     29.47   0    
Apr 26 14:23 3 1.75 Thunderstorms and Rain and Fog/Mist FEW004 BKN029 OVC075 62 62     100%     29.49   0    
Apr 26 14:18 3 3 Thunderstorms and Rain and Fog/Mist SCT038 BKN060 OVC075 62 62     100%     29.49   0    
Apr 26 13:53 3 1.25 Thunderstorms and Rain and Fog/Mist FEW031 BKN050 OVC060 62 62     100%     29.5 29.48 0    
Apr 26 13:45 NNE 3 1.5 Thunderstorms and Rain and Fog/Mist SCT029 OVC050 62 62     100%     29.5   0    
Apr 26 13:39 Calm 6 Thunderstorms and Rain and Fog/Mist FEW029 OVC047 62 62     100%     29.5   0    
Apr 26 13:32 ESE 5 2 Thunderstorms and Rain and Fog/Mist SCT033 OVC045 62 62     100%     29.51   0    
Apr 26 13:21 6 0.75 Thunderstorms and Heavy Rain and Fog/Mist SCT026 OVC042 63 63     100%     29.52   0    
Apr 26 13:06 3 1 Light Rain and Fog/Mist SCT029 OVC042 63 63     100%     29.53   0    
Apr 26 12:53 N 6 1.5 Rain and Fog/Mist FEW017 BKN037 OVC047 63 63     100%     29.53 29.51 0   0
Apr 26 12:49 NNW 6 1 Rain and Fog/Mist FEW017 BKN034 OVC049 63 63     100%     29.53   0    
Apr 26 12:43 NNW 8 1.75 Heavy Rain and Fog/Mist SCT015 BKN028 OVC034 64 62     93%     29.53   0    
Apr 26 12:01 SSW 8 10 Cloudy BKN019 OVC024 73 68     84%   74 29.53        
Apr 26 11:53 S 8 10 Cloudy BKN019 OVC024 73 68     84%   74 29.54 29.52      
Apr 26 10:53 SSE 10 10 Cloudy BKN017 OVC026 73 68     84%   74 29.53 29.51      
Apr 26 09:53 7 10 Mostly Cloudy SCT018 BKN024 BKN029 72 68     87%   73 29.53 29.51   0  
Apr 26 08:53 SSE 10 10 Cloudy BKN019 OVC026 71 67     87%   72 29.53 29.51 0    
Apr 26 07:53 SSE 9 10 Cloudy FEW017 BKN028 OVC042 70 67     90%     29.55 29.53      
Apr 26 07:36 SE 8 10 Cloudy SCT028 BKN034 OVC070 71 67     87%   72 29.54        
Apr 26 06:53 SE 7 10 Cloudy BKN027 OVC037 70 67     90%     29.54 29.52      
Apr 26 06:49 SE 7 10 Cloudy BKN027 BKN033 OVC055 70 66     88%     29.54        
Apr 26 06:24 SE 7 10 Cloudy FEW024 OVC031 71 66     84%   72 29.54        
Apr 26 05:53 ESE 7 10 Cloudy OVC024 71 66     84%   72 29.55 29.53      
Apr 26 05:33 E 6 10 Cloudy BKN028 OVC046 72 66     82%   73 29.54        
Apr 26 04:53 SE 3 10 Cloudy FEW029 SCT043 OVC050 72 66     82%   73 29.54 29.52      
Apr 26 03:53 S 7 10 Cloudy OVC048 73 65     76%   74 29.54 29.51      
Apr 26 02:53 S 10 10 Cloudy SCT026 OVC046 73 65     76%   74 29.54 29.51      
Apr 26 01:53   10 Cloudy OVC046 74 65     74%   74 29.53 29.51      
Apr 26 00:53 S 11 10 Cloudy OVC050 74 65     74%   74 29.54 29.52      
Apr 25 23:53 S 11 10 Cloudy OVC047 74 64     71%   74 29.55 29.53      
Apr 25 22:53 S 10 10 Cloudy OVC048 75 64     69%   75 29.55 29.53      
Apr 25 21:53 S 10 10 Cloudy OVC050 76 64     67%   76 29.55 29.53      
Apr 25 20:53 SSW 11 10 Cloudy OVC047 76 64     67%   76 29.55 29.53      
Apr 25 19:53 S 9 10 Partly Cloudy SCT043 77 63     62%   77 29.53 29.51      
Apr 25 18:53 SSW 11 10 Clear CLR 79 63     58%   79 29.52 29.51      
Apr 25 17:53 S 10 10 Clear   81 62     53%   82 29.53 29.51      
Apr 25 16:53 SSE 11 10 Clear CLR 81 61     51%   82 29.54 29.52      
Apr 25 15:53 SSW 13 10 Clear CLR 81 61     51%   82 29.56 29.54      
Apr 25 14:53 S 15 10 Clear CLR 80 61     52%   81 29.57 29.55      
Apr 25 13:53 S 14 10 Clear CLR 79 61     54%   79 29.59 29.58      
Apr 25 12:53 S 15 10 Clear CLR 77 60     56%   77 29.62 29.6      
Apr 25 11:53 SSW 10 10 Clear CLR 75 59     57%   75 29.65 29.63      
Apr 25 09:53 SSW 9 10 Clear CLR 69 54     59%     29.68 29.67      
Apr 25 08:53 5 10 Clear CLR 64 53     67%     29.69 29.67      
Apr 25 07:53 SE 6 10 Clear CLR 60 52     75%     29.69 29.67      
Apr 25 06:53 SSE 3 10 Clear CLR 57 49     74%     29.69 29.68      
Apr 25 05:53 SE 5 10 Clear CLR 58 48     70%     29.69 29.67      
Apr 25 04:53 SE 3 10 Clear CLR 57 47     69%     29.69 29.67      
Apr 25 03:53 E 5 10 Clear CLR 54 47     77%     29.7 29.68      
Apr 25 02:53 E 6 10 Clear CLR 54 47     77%     29.7 29.69      
Apr 25 01:53 E 5 10 Clear CLR 55 47     74%     29.72 29.7      
Apr 25 00:53 ESE 5 10 Clear CLR 61 47     60%     29.73 29.71      
Apr 24 23:53 SE 5 10 Clear CLR 64 44     48%     29.74 29.72      
Apr 24 22:53 SE 5 10 Clear CLR 63 45     52%     29.74 29.72      
Apr 24 21:53 ENE 6 10 Clear CLR 58 47     67%     29.74 29.73      
Apr 24 20:53 ENE 3 10 Clear CLR 63 47     56%     29.74 29.72      
Apr 24 19:53 Calm 10 Clear CLR 71 42     35%   70 29.72 29.71      
Apr 24 18:53 3 10 Clear CLR 73 41     31%   72 29.73 29.72      
Apr 24 17:53 S 7 10 Clear CLR 76 36     23%   74 29.75 29.74      
Apr 24 16:53 S 8 10 Clear CLR 78 40     26%   77 29.77 29.76      
Apr 24 15:53 S 6 10 Clear CLR 78 38     24%   77 29.79 29.78      
Apr 24 14:53 SW 5 10 Clear CLR 76 37     24%   74 29.83 29.82      
Apr 24 13:53 E 5 10 Clear CLR 74 33     22%   72 29.88 29.87      
Apr 24 12:53 5 10 Clear CLR 73 37     27%   71 29.91 29.91      
Apr 24 11:53 6 10 Clear CLR 72 36     27%   70 29.95 29.94      
Apr 24 10:53 6 10 Clear CLR 70 44     39%     29.98 29.97      
Apr 24 09:53 W 6 10 Clear CLR 62 52     70%     29.99 29.98      
Apr 24 08:53 W 5 10 Clear CLR 56 50     80%     29.99 29.98      
Apr 24 08:51 W 5 10 Clear CLR 55 50     82%     29.99        
Apr 24 08:42 WNW 5 2.5 Haze CLR 55 49     80%     29.99        
Apr 24 07:53 W 5 10 Clear CLR 50 47     89% 48   29.99 29.98      
Apr 24 06:53 W 3 10 Clear CLR 46 44     93% 45   29.98 29.97      
Apr 24 05:53 W 3 10 Clear CLR 45 44     97% 44   29.97 29.96      
Apr 24 04:53 WNW 3 10 Clear CLR 44 43     96% 43   29.96 29.95      
Apr 24 03:53 Calm 10 Clear CLR 46 44     93%     29.94 29.93      
Apr 24 02:53 Calm 10 Clear CLR 46 44     93%     29.93 29.92      
Apr 24 01:53 Calm 10 Clear CLR 47 45     93%     29.93 29.92      
Apr 24 00:53 NW 5 10 Clear CLR 50 48     93% 48   29.94 29.93      
Apr 23 23:53 W 5 10 Clear CLR 52 48     86%     29.96 29.96      
Apr 23 22:53 Calm 10 Clear CLR 53 46     77%     29.99 29.98      
Apr 23 21:53 Calm 10 Clear CLR 54 46     74%     29.99 29.98      
Apr 23 20:53 Calm 10 Clear CLR 58 46     65%     29.99 29.98      
Apr 23 19:53 NNE 3 10 Clear CLR 67 39     36%     29.98 29.96      
Apr 23 18:53 NNE 8 10 Clear CLR 71 36     28%   69 29.97 29.96      
Apr 23 17:53 N 8 10 Clear CLR 72 36     27%   70 29.97 29.96      
Apr 23 16:53 N 8 10 Clear CLR 72 38     29%   70 29.97 29.96      
Apr 23 15:53 N 8 10 Clear CLR 70 38     31%     29.98 29.97      
Apr 23 14:53 6 10 Clear CLR 69 37     31%     30 29.99      
Apr 23 13:53 7 10 Clear CLR 68 43     40%     30.01 30      
Apr 23 12:53 N 10 10 Clear CLR 65 41     42%     30.03 30.02      
Apr 23 11:53 NNE 8 10 Clear CLR 63 42     46%     30.05 30.05      
Apr 23 10:53 N 9 10 Clear CLR 62 43     50%     30.05 30.04      
Apr 23 09:53 NNW 9 10 Clear CLR 59 44     58%     30.06 30.05      
Apr 23 08:53 NNW 8 10 Clear CLR 56 45     67%     30.06 30.05      
Apr 23 07:53 N 5 10 Clear CLR 53 46     77%     30.06 30.05      
Apr 23 06:53 Calm 10 Cloudy OVC037 51 47     86%     30.05 30.04      
Apr 23 05:53 NW 3 10 Cloudy BKN035 OVC050 51 47     86%     30.03 30.02      
Apr 23 04:53 NNW 7 10 Cloudy BKN034 OVC046 51 47     86%     30.02 30.01      
Apr 23 04:10 NW 3 10 Cloudy SCT024 OVC030 51 47     86%     30.02        
Apr 23 03:53 NNW 5 10 Cloudy OVC025 51 47     86%     30.03 30.02      
Apr 23 02:53 5 10 Cloudy OVC021 51 47     86%     30.02 30.01      
Apr 23 01:53 5 10 Cloudy OVC025 51 48     89%     30.03 30.02      
Apr 23 01:36 3 10 Cloudy BKN025 OVC050 51 47     86%     30.03        
Apr 23 00:53 N 8 10 Cloudy OVC050 52 47     83%     30.04 30.03     0
Apr 22 23:53 7 10 Cloudy OVC042 53 49     86%     30.04 30.03      
Apr 22 23:32 NNW 7 10 Cloudy FEW018 BKN030 OVC038 52 50     93%     30.04        
Apr 22 23:17 N 7 10 Cloudy FEW016 FEW021 OVC028 52 50     93%     30.04        
Apr 22 22:53 NNW 6 10 Cloudy FEW015 BKN031 OVC065 53 50     89%     30.04 30.03      
Apr 22 21:53 NNW 6 10 Cloudy SCT017 OVC036 53 50     89%     30.04 30.03   0  
Apr 22 21:24 NNW 3 10 Cloudy SCT029 OVC036 53 51     93%     30.04        
Apr 22 20:53 NNW 6 10 Cloudy FEW013 BKN024 OVC028 53 51     93%     30.03 30.02 0    
Apr 22 20:31 6 8 Cloudy SCT010 BKN016 OVC028 53 51     93%     30.02   0    
Apr 22 20:23 7 6 Light Rain and Fog/Mist SCT010 BKN014 OVC028 53 52     96%     30.02   0    
Apr 22 19:53 NNW 8 7 Cloudy BKN016 BKN025 OVC030 54 50     86%     30.01 30      
Apr 22 18:53 NNW 10 10 Cloudy BKN017 OVC027 56 50     80%     29.99 29.98      
Apr 22 17:53 NW 8 10 Cloudy BKN019 OVC030 58 52     81%     29.97 29.96      
Apr 22 17:33 NW 9 10 Cloudy BKN021 OVC028 58 52     81%     29.97        
Apr 22 16:53 NW 9 10 Cloudy BKN023 BKN040 OVC049 60 53     78%     29.95 29.94      
Apr 22 16:23 NW 9 10 Cloudy SCT025 BKN034 OVC047 62 52     70%     29.93        
Apr 22 16:16 NW 10 10 Cloudy BKN025 BKN032 OVC049 63 52     67%     29.93        
Apr 22 15:53 NW 7 10 Cloudy FEW025 OVC048 64 54     70%     29.93 29.92      
Apr 22 15:21 WNW 8 10 Cloudy SCT023 BKN031 OVC043 62 53     72%     29.94        
Apr 22 15:09 WNW 11 10 Cloudy SCT022 BKN026 OVC043 62 54     75%     29.94        
Apr 22 14:53 WNW 8 10 Cloudy SCT020 OVC036 65 55     70%     29.94 29.93      
Apr 22 14:48 NW 9 10 Cloudy FEW018 OVC037 64 55     73%     29.94        
Apr 22 14:13 N 6 10 Cloudy OVC016 62 55     78%     29.94        
Apr 22 13:53 7 10 Cloudy OVC013 61 55     81%     29.94 29.93      
Apr 22 12:53 6 10 Cloudy OVC012 60 55     83%     29.94 29.93      
Apr 22 12:20 NW 9 10 Cloudy OVC011 59 56     90%     29.94        
Apr 22 11:53 WNW 6 10 Cloudy OVC009 58 56     93%     29.94 29.93      
Apr 22 11:46 WNW 8 10 Cloudy OVC009 58 56     93%     29.94        
Apr 22 10:53 6 10 Cloudy BKN013 OVC018 60 56     86%     29.93 29.91      
Apr 22 09:53 NNW 8 10 Cloudy FEW006 BKN015 OVC032 59 57     93%     29.91 29.89      
Apr 22 09:42 NW 7 10 Cloudy SCT004 SCT010 OVC015 59 57     93%     29.91        
Apr 22 09:18 3 7 Cloudy OVC004 58 57     97%     29.9        
Apr 22 08:53 NW 5 8 Cloudy OVC009 57 57     100%     29.9 29.89      
Apr 22 08:23 NW 5 3 Fog/Mist BKN011 OVC016 57 56     96%     29.89        
Apr 22 07:53 NNE 3 10 Cloudy OVC016 57 55     93%     29.89 29.88      
Apr 22 07:43 NE 3 10 Cloudy OVC014 57 55     93%     29.89        
Apr 22 07:35 NE 5 10 Cloudy BKN016 OVC022 56 54     93%     29.88        
Apr 22 07:03 Calm 10 Cloudy SCT009 OVC014 56 55     97%     29.87        
Apr 22 06:53 Calm 9 Cloudy BKN010 OVC013 56 55     97%     29.87 29.85     0
Apr 22 05:53 Calm 10 Cloudy BKN009 BKN018 OVC024 56 55     97%     29.85 29.83      
Apr 22 04:53 ENE 6 10 Cloudy OVC008 55 55     100%     29.82 29.81      
Apr 22 03:53 ENE 5 10 Cloudy OVC008 56 55     97%     29.83 29.82   0  
Apr 22 02:53 ENE 11 10 Mostly Cloudy BKN008 58 57     97%     29.83 29.81 0    
Apr 22 02:45 E 9 10 Mostly Cloudy BKN008 BKN095 58 57     97%     29.82   0    
Apr 22 02:35 E 11 10 Light Rain BKN008 OVC033 58 57     97%     29.81   0    
Apr 22 02:20   7 Thunderstorms and Rain BKN008 59 57     93%     29.83   0    
Apr 22 02:07 ENE 9 10 Cloudy BKN008 OVC024 60 59     96%     29.83   0    
Apr 22 01:53 E 10 10 Light Rain BKN010 OVC025 62 60     93%     29.83 29.81 0    
Apr 22 01:49 E 10 7 Light Rain BKN010 BKN025 OVC090 63 61     94%     29.82   0    
Apr 22 01:31 6 10 Light Rain SCT012 BKN028 OVC110 63 62     97%     29.82   0    
Apr 22 01:15 6 7 Light Rain FEW014 BKN030 OVC100 63 62     97%     29.82   0    
Apr 22 01:09 NE 9 3 Thunderstorms and Rain and Fog/Mist SCT010 BKN024 OVC100 63 62     97%     29.82   0    
Apr 22 01:02 NNW 7 1.25 Thunderstorms and Heavy Rain and Fog/Mist SCT008 BKN023 OVC034 62 62     100%     29.83   0    
Apr 22 00:53 NW 8 1 Thunderstorms and Heavy Rain and Fog/Mist BKN008 OVC025 63 63     100%     29.83 29.81 1   1
Apr 22 00:46 WNW 10 1 Thunderstorms and Heavy Rain and Fog/Mist OVC008 63 63     100%     29.84   0    
Apr 22 00:34 N 5 2.5 Thunderstorms and Rain and Fog/Mist OVC008 63 63     100%     29.79   0    
Apr 22 00:15 ENE 13 6 Thunderstorms and Rain and Fog/Mist OVC008 64 63     96%     29.77   0    
Apr 21 23:53 E 10 10 Light Rain BKN009 BKN090 OVC110 64 63     96%     29.77 29.75 0    
Apr 21 23:37   10 Thunderstorms and Rain BKN009 BKN080 BKN110 65 63     93%     29.77   0    
Apr 21 23:28 E 10 10 Light Rain SCT009 BKN015 BKN055 65 63     93%     29.79   0    
Apr 21 23:17 E 9 10 Mostly Cloudy FEW013 SCT039 BKN110 65 63     93%     29.79        
Apr 21 22:53 E 10 10 Mostly Cloudy BKN013 BKN037 66 63     90%     29.81 29.8 0    
Apr 21 22:49 E 10 10 Mostly Cloudy BKN014 BKN039 66 63     88%     29.81   0    
Apr 21 22:21   10 Mostly Cloudy FEW014 BKN036 BKN047 66 63     90%     29.81   0    
Apr 21 21:53 ESE 8 10 Cloudy OVC014 67 63     87%     29.83 29.81      
Apr 21 21:25 E 9 10 Cloudy BKN014 BKN060 OVC075 67 63     87%     29.81        
Apr 21 20:53 E 9 10 Mostly Clear FEW043 67 62     84%     29.78 29.76      
Apr 21 19:53 E 11 10 Partly Cloudy FEW048 SCT060 68 63     84%     29.81 29.79      
Apr 21 18:53 E 8 10 Mostly Cloudy BKN095 71 64     79%   72 29.81 29.8     0
Apr 21 17:53 E 9 10 Clear CLR 72 64     76%   72 29.82 29.8      
Apr 21 16:53 E 11 10 Mostly Clear FEW021 73 63     71%   73 29.83 29.81      
Apr 21 15:53 3 10 Partly Cloudy SCT100 71 63     76%   71 29.86 29.84   0  
Apr 21 14:53 E 5 10 Mostly Cloudy FEW047 FEW060 BKN100 69 62     78%     29.9 29.89      
Apr 21 14:01 NE 10 10 Cloudy FEW016 OVC039 65 62     90%     29.92        
Apr 21 13:53 E 7 10 Cloudy BKN016 OVC037 64 62     93%     29.92 29.91 0    
Apr 21 12:53 ESE 7 10 Cloudy OVC018 62 58     86%     29.94 29.93 0   0
Apr 21 11:53 E 14 10 Cloudy OVC020 63 56     78%     29.94 29.93      
Apr 21 10:53 ENE 14 10 Mostly Cloudy BKN022 BKN100 69 62     78%     29.94 29.93      
Apr 21 09:53 SSW 5 10 Mostly Clear FEW011 74 68     82%   75 29.95 29.93      
Apr 21 09:37 6 9 Partly Cloudy SCT011 SCT029 72 68     87%   73 29.95        
Apr 21 09:30 SSW 6 9 Mostly Cloudy BKN010 BKN029 BKN100 72 68     87%   73 29.95        
Apr 21 09:15 WSW 6 8 Mostly Cloudy FEW008 SCT012 BKN028 71 68     90%   72 29.96        
Apr 21 09:05 3 8 Mostly Cloudy SCT012 SCT028 BKN095 70 68     93%     29.96        
Apr 21 08:53 WSW 3 8 Mostly Cloudy BKN010 BKN095 69 67     93%     29.96 29.95      
Apr 21 08:39 WSW 5 8 Cloudy BKN010 OVC090 69 67     93%     29.96        
Apr 21 08:23 WSW 3 9 Cloudy OVC009 69 67     93%     29.97        
Apr 21 07:53 NW 5 8 Cloudy BKN013 BKN034 OVC047 67 66     97%     29.97 29.95      
Apr 21 06:53 Calm 8 Clear CLR 65 65     100%     29.94 29.92      
Apr 21 05:53 Calm 9 Clear CLR 63 63     100%     29.94 29.92      
Apr 21 04:53 Calm 7 Clear CLR 66 63     90%     29.94 29.93      
Apr 21 03:53 Calm 8 Clear CLR 65 64     97%     29.96 29.94      
Apr 21 02:53 Calm 10 Mostly Cloudy BKN085 66 64     93%     29.96 29.94      
Apr 21 01:53 Calm 9 Clear CLR 65 64     97%     29.98 29.96      
Apr 21 00:53 Calm 10 Partly Cloudy SCT095 67 64     90%     30 29.98      
Apr 20 23:53 Calm 10 Clear CLR 67 65     93%     30 29.98      
Apr 20 22:53 ENE 3 10 Clear CLR 67 64     90%     30 29.99      
Apr 20 21:53 Calm 10 Clear CLR 70 65     84%     30.01 29.99      
Apr 20 20:53 Calm 10 Clear CLR 72 65     79%   73 30 29.98      
Apr 20 19:53 Calm 10 Clear CLR 76 65     69%   76 29.98 29.96      
Apr 20 18:53 WSW 6 10 Clear CLR 79 65     62%   80 29.98 29.96      
Apr 20 17:53 SW 11 10 Clear CLR 80 64     58%   82 29.99 29.97      
Apr 20 16:53 SW 9 10 Clear CLR 81 64     56%   83 30 29.98      
Apr 20 15:53 SW 9 10 Mostly Clear FEW050 81 65     58%   83 30.02 30      
Apr 19 15:53 SW 9 10 Partly Cloudy SCT047 83 64     53%   84 30.06 30.04      
Apr 19 14:53 SSW 8 10 Partly Cloudy FEW045 SCT055 SCT080 82 65     56%   84 30.08 30.06      
Apr 19 13:53 SW 7 10 Partly Cloudy SCT040 SCT047 81 65     58%   83 30.09 30.07      
Apr 19 12:53 SW 6 10 Partly Cloudy SCT033 SCT042 SCT050 79 65     62%   80 30.11 30.09      
Apr 19 11:53 S 10 10 Partly Cloudy SCT028 SCT039 79 66     65%   80 30.13 30.11      
Apr 19 10:53 SSW 7 10 Mostly Clear FEW024 77 66     69%   78 30.13 30.11      
Apr 19 10:39 S 13 10 Partly Cloudy FEW022 SCT028 75 65     71%   76 30.13        
Apr 19 10:28 SSW 9 10 Mostly Cloudy SCT022 BKN028 75 66     74%   76 30.13        
Apr 19 09:53 S 7 10 Mostly Clear FEW022 74 66     76%   75 30.13 30.11      
Apr 19 08:53 S 6 10 Clear CLR 69 65     87%     30.12 30.1      
Apr 19 07:53 3 9 Clear CLR 66 64     93%     30.12 30.11      
Apr 19 06:53 ENE 5 6 Fog/Mist CLR 61 61     100%     30.12 30.1      
Apr 19 05:53 E 5 9 Clear CLR 61 61     100%     30.11 30.09      
Apr 19 04:53 E 3 9 Clear CLR 63 62     97%     30.09 30.07      
Apr 19 03:53 E 7 10 Clear CLR 63 62     97%     30.07 30.06      
Apr 19 02:53 SE 5 10 Clear CLR 64 63     96%     30.07 30.05      
Apr 19 01:53 Calm 10 Clear CLR 64 64     100%     30.08 30.06      
Apr 19 00:53 Calm 10 Clear CLR 65 64     97%     30.09 30.08      
Apr 18 22:53 SSE 3 10 Clear CLR 70 66     87%     30.09 30.08      
Apr 18 21:53 SE 6 10 Clear CLR 72 67     84%   73 30.09 30.08      
Apr 18 20:53 SSE 3 10 Mostly Clear FEW065 FEW080 74 66     76%   75 30.07 30.05      
Apr 18 19:53 Calm 10 Clear CLR 76 66     71%   77 30.04 30.02      
Apr 18 18:53 SSW 5 10 Clear CLR 79 65     62%   80 30.04 30.02      
Apr 18 17:53 S 6 10 Mostly Clear FEW044 81 64     56%   83 30.03 30.01      
Apr 18 16:53 Calm 10 Mostly Clear FEW070 80 65     60%   82 30.03 30.01      
Apr 18 15:53 3 10 Mostly Clear FEW034 FEW045 79 65     62%   80 30.04 30.03      
Apr 18 14:53 S 6 10 Mostly Clear FEW055 80 65     60%   82 30.05 30.04      
Apr 18 13:53 SW 7 10 Mostly Clear FEW030 79 65     62%   80 30.06 30.05      
Apr 18 13:35 6 10 Mostly Cloudy BKN030 77 65     66%   78 30.07        
Apr 18 13:23 Calm 10 Mostly Cloudy BKN028 77 65     66%   78 30.07        
Apr 18 12:53 SE 5 10 Partly Cloudy SCT024 76 65     69%   76 30.08 30.06      
Apr 18 11:53 Calm 10 Mostly Clear FEW018 73 63     71%   73 30.09 30.07      
Apr 18 11:46 S 5 10 Partly Cloudy SCT018 73 64     73%   73 30.09        
Apr 18 11:30 Calm 10 Mostly Cloudy BKN019 72 64     76%   72 30.09        
Apr 18 11:02 3 10 Partly Cloudy SCT015 72 64     76%   72 30.09        
Apr 18 10:53 5 10 Mostly Cloudy BKN014 71 64     79%   72 30.08 30.07      
Apr 18 10:32 5 10 Partly Cloudy SCT014 70 65     84%     30.08        
Apr 18 09:53 SSE 5 10 Cloudy FEW011 OVC017 68 65     90%     30.09 30.08      
Apr 18 09:00 E 5 10 Mostly Cloudy SCT006 BKN015 67 65     93%     30.09        
Apr 18 08:53 E 5 10 Partly Cloudy SCT006 SCT015 66 65     96%     30.09 30.08      
Apr 18 08:40 E 5 10 Mostly Cloudy SCT005 BKN015 66 65     96%     30.08        
Apr 18 08:14 E 6 10 Partly Cloudy FEW004 SCT015 66 65     96%     30.08        
Apr 18 07:53 ENE 3 10 Cloudy FEW004 OVC015 65 65     100%     30.08 30.07      
Apr 18 07:19 Calm 9 Cloudy SCT006 OVC011 65 64     97%     30.08        
Apr 18 06:53 Calm 9 Cloudy BKN006 OVC011 64 64     100%     30.07 30.06      
Apr 18 06:43 Calm 9 Cloudy BKN007 OVC011 64 64     100%     30.07        
Apr 18 06:35 Calm 9 Cloudy SCT007 OVC011 64 64     100%     30.07        
Apr 18 06:02 Calm 8 Cloudy OVC010 64 63     96%     30.06        
Apr 18 05:53 Calm 8 Cloudy OVC008 64 63     96%     30.05 30.04      
Apr 18 04:53 Calm 9 Cloudy OVC005 64 64     100%     30.06 30.04      
Apr 18 03:53 Calm 9 Cloudy OVC005 63 63     100%     30.05 30.04      
Apr 18 02:53 Calm 8 Cloudy OVC006 62 62     100%     30.04 30.03      
Apr 18 02:38 W 3 3 Fog/Mist OVC007 61 61     100%     30.04        
Apr 18 02:35 Calm 1.5 Fog/Mist OVC007 61 61     100%     30.04        
Apr 18 02:18 Calm 0.75 Fog/Mist FEW002 BKN007 61 61     100%     30.04        
Apr 18 02:07 Calm 1.75 Fog/Mist FEW002 61 61     100%     30.04        
Apr 18 01:53 Calm 3 Fog/Mist FEW002 FEW006 SCT042 61 61     100%     30.04 30.03      
Apr 18 01:49 Calm 3 Fog/Mist FEW002 FEW006 SCT042 61 61     100%     30.04        
Apr 18 01:43 Calm 1.5 Fog/Mist FEW002 FEW006 BKN042 61 61     100%     30.04        
Apr 18 01:32 Calm 0.75 Fog/Mist FEW002 SCT006 BKN041 61 61     100%     30.04        
Apr 18 01:06 Calm 1.75 Fog/Mist FEW003 SCT008 BKN042 62 62     100%     30.05        
Apr 18 01:02 Calm 3 Fog/Mist FEW003 SCT008 BKN042 62 62     100%     30.05        
Apr 18 00:53 Calm 1 Fog/Mist FEW004 SCT009 BKN043 62 62     100%     30.05 30.04     0
Apr 18 00:48 Calm 2 Fog/Mist FEW009 SCT043 63 63     100%     30.05        
Apr 17 23:53 NNW 3 10 Clear   63 63     100%     30.05 30.04      
Apr 17 22:53 Calm 10 Cloudy BKN043 OVC065 64 64     100%     30.06 30.04      
Apr 17 21:53 Calm 10 Cloudy SCT045 OVC070 64 63     96%     30.05 30.04 0 0  
Apr 17 20:53 Calm 10 Cloudy FEW046 BKN065 OVC085 65 63     93%     30.03 30.02 0    
Apr 17 19:53 ENE 7 6 Light Rain and Fog/Mist FEW044 BKN060 OVC075 65 64     97%     30.02 30.01 0    
Apr 17 19:39 NE 3 2.5 Light Rain and Fog/Mist BKN042 OVC060 65 64     97%     30.02   0    
Apr 17 19:27 Calm 3 Light Rain and Fog/Mist FEW025 OVC038 66 65     96%     30.02   0    
Apr 17 19:15 NW 3 1.75 Light Rain and Fog/Mist SCT025 BKN036 OVC044 66 64     93%     30.02   0    
Apr 17 18:53 NNW 3 10 Cloudy OVC040 68 64     87%     30.02 30.01     0
Apr 17 17:53 Calm 10 Cloudy FEW037 BKN055 OVC070 70 63     78%     30.02 30      
Apr 17 16:53 Calm 10 Cloudy BKN038 OVC050 70 64     81%     30.01 29.99      
Apr 17 16:29 N 5 10 Cloudy FEW020 SCT028 OVC043 70 63     78%     30        
Apr 17 15:53 Calm 10 Cloudy OVC021 70 63     78%     30 29.98   0  
Apr 17 15:12 S 6 10 Mostly Cloudy BKN017 70 64     81%     30.01        
Apr 17 14:53 ESE 6 10 Partly Cloudy SCT016 70 62     76%     30.01 29.99      
Apr 17 14:25 Calm 10 Cloudy BKN011 OVC018 67 63     87%     30.04        
Apr 17 14:16 Calm 10 Cloudy BKN009 OVC017 67 63     87%     30.05        
Apr 17 14:09 Calm 10 Cloudy SCT009 BKN015 OVC080 67 64     90%     30.06        
Apr 17 13:53 SW 5 10 Cloudy SCT011 BKN017 OVC085 66 63     90%     30.07 30.06 0    
Apr 17 13:47 3 10 Light Rain BKN013 BKN020 OVC085 66 63     88%     30.07   0    
Apr 17 12:53 SW 3 8 Light Rain SCT009 BKN070 OVC100 65 64     97%     30.11 30.1 0   0
Apr 17 12:30 NNW 5 10 Light Rain SCT008 BKN046 OVC100 65 64     97%     30.12   0    
Apr 17 12:23 NW 5 8 Light Rain SCT005 BKN010 OVC100 65 65     100%     30.13   0    
Apr 17 12:06 W 8 10 Cloudy BKN007 BKN014 OVC090 64 64     100%     30.15        
Apr 17 11:53 W 7 10 Cloudy SCT008 SCT060 OVC090 65 64     97%     30.14 30.13 0    
Apr 17 10:53 WNW 3 10 Light Rain FEW006 OVC100 65 64     97%     30.12 30.1 0    
Apr 17 10:28 W 3 4 Light Rain and Fog/Mist FEW005 SCT060 OVC095 64 64     100%     30.12   0    
Apr 17 09:53 Calm 7 Light Rain OVC090 64 64     100%     30.11 30.09 0 0  
Apr 17 08:53 SSE 5 9 Light Rain SCT070 BKN090 OVC110 64 63     96%     30.07 30.06 0    
Apr 17 07:53 Calm 10 Cloudy OVC065 63 63     100%     30.09 30.08 0    
Apr 17 07:50 Calm 10 Cloudy BKN065 OVC080 63 63     100%     30.09   0    
Apr 17 07:42 SSW 3 10 Cloudy BKN060 OVC080 63 63     100%     30.09   0    
Apr 17 06:53 NNW 8 5 Thunderstorms and Rain and Fog/Mist FEW019 BKN039 OVC049 64 62     93%     30.06 30.05 0   0
Apr 17 06:38 NW 7 10 Thunderstorms SCT015 BKN023 OVC037 66 63     90%     30.06        
Apr 17 06:19 7 10 Cloudy SCT015 BKN026 OVC085 66 64     93%     30.05        
Apr 17 05:53 Calm 10 Cloudy BKN090 OVC110 68 64     87%     30.03 30.01      
Apr 17 04:53 Calm 10 Mostly Cloudy BKN070 BKN085 67 64     90%     30.04 30.02      
Apr 17 03:53 Calm 10 Clear   67 64     90%     30.04 30.02      
Apr 17 02:53 S 3 10 Cloudy BKN055 OVC090 66 64     93%     30.05 30.03      
Apr 17 01:53 Calm 10 Mostly Cloudy BKN047 65 63     93%     30.05 30.03      
Apr 17 00:53 Calm 10 Clear CLR 67 62     84%     30.06 30.04      
Apr 16 23:53 ENE 3 10 Clear CLR 68 63     84%     30.05 30.03      
Apr 16 22:53 E 7 10 Clear CLR 68 63     84%     30.03 30.02      
Apr 16 21:53 E 6 10 Clear CLR 68 63     84%     30.07 30.05      
Apr 16 20:53 ENE 3 10 Clear CLR 69 62     78%     30.07 30.06      
Apr 16 19:53 Calm 10 Clear CLR 75 63     66%   75 30.05 30.03      
Apr 16 18:53 S 5 10 Clear CLR 78 61     56%   78 30.04 30.03      
Apr 16 17:53 SW 9 10 Mostly Clear FEW046 80 62     54%   81 30.03 30.01      
Apr 16 16:53 SW 9 10 Partly Cloudy SCT044 80 62     54%   81 30.02 30.01      
Apr 16 15:53 SSW 11 10 Clear CLR 81 61     51%   82 30.03 30.01      
Apr 16 14:53 S 7 10 Clear CLR 79 62     56%   79 30.08 30.06      
Apr 16 13:53 Calm 10 Mostly Clear FEW038 FEW075 79 61     54%   79 30.13 30.11      
Apr 16 12:53 6 10 Mostly Cloudy SCT032 BKN080 77 62     60%   77 30.16 30.14      
Apr 16 11:53 6 10 Partly Cloudy FEW024 SCT037 74 63     69%   74 30.16 30.14      
Apr 16 11:09 SW 6 10 Mostly Cloudy FEW023 FEW028 BKN033 72 64     76%   72 30.16        
Apr 09 00:53 SSW 14 10 Clear CLR 69 53     57%     29.91 29.89      
Apr 08 23:53 SSW 9 10 Clear CLR 70 53     55%     29.91 29.89      
Apr 08 22:53 S 11 10 Clear CLR 71 52     51%   70 29.92 29.9      
Apr 08 21:53 S 6 10 Clear CLR 72 51     48%   71 29.92 29.9      
Apr 08 20:53 5 10 Clear CLR 72 51     48%   71 29.91 29.89      
Apr 08 19:53 SSW 7 10 Clear CLR 73 50     44%   72 29.9 29.88      
Apr 08 18:53 S 9 10 Clear CLR 76 49     39%   75 29.91 29.89      
Apr 08 17:53 SSW 11 10 Clear CLR 78 50     37%   77 29.91 29.9      
Apr 08 16:53 SSW 15 10 Clear CLR 78 47     33%   77 29.93 29.91      
Apr 08 15:53 SSW 11 10 Clear CLR 79 48     34%   78 29.95 29.93      
Apr 08 14:53 SSW 15 10 Clear CLR 78 47     33%   77 29.97 29.96      
Apr 08 13:53 SSW 13 8 Clear CLR 77 47     35%   76 30 29.98      
Apr 08 12:53 SW 14 8 Clear CLR 75 50     41%   74 30.03 30.02      
Apr 08 11:53 S 10 10 Clear CLR 72 50     46%   71 30.06 30.05      
Apr 08 10:53 6 10 Clear CLR 69 52     54%     30.07 30.06      
Apr 08 09:53 SSE 5 10 Clear CLR 63 47     56%     30.08 30.07      
Apr 08 08:53 SE 6 10 Clear CLR 60 44     55%     30.08 30.08      
Apr 08 07:53 E 7 10 Clear CLR 56 44     64%     30.09 30.08      
Apr 08 06:53 E 5 10 Clear CLR 52 42     69%     30.07 30.06      
Apr 08 05:53 E 6 10 Clear CLR 50 42     74% 48   30.07 30.06      
Apr 08 04:53 E 3 10 Clear CLR 49 43     80% 48   30.06 30.05      
Apr 08 03:53 E 6 10 Clear CLR 50 43     77% 48   30.07 30.06      
Apr 08 02:53 E 6 10 Clear CLR 50 42     74% 48   30.07 30.06      
Apr 08 01:53 Calm 10 Clear CLR 50 44     80%     30.08 30.07      
Apr 08 00:53 Calm 10 Clear CLR 51 44     77%     30.09 30.08      
Apr 07 23:53 Calm 10 Clear CLR 51 43     74%     30.1 30.09      
Apr 07 22:53 ENE 3 10 Clear CLR 50 43     77% 49   30.11 30.1      
Apr 07 21:53 NE 3 10 Clear CLR 53 44     71%     30.12 30.11      
Apr 07 20:53 NE 3 10 Clear CLR 56 43     62%     30.11 30.1      
Apr 07 19:53 Calm 10 Clear CLR 66 39     37%     30.1 30.1      
Apr 07 18:53 S 5 10 Clear CLR 70 35     28%     30.1 30.09      
Apr 07 17:53 S 6 10 Clear CLR 71 33     25%   69 30.11 30.1      
Apr 07 16:53 Calm 10 Clear CLR 71 30     22%   69 30.12 30.11      
Apr 07 15:53 3 10 Clear CLR 71 30     22%   69 30.15 30.15      
Apr 07 14:53 W 7 10 Clear CLR 70 30     23%     30.19 30.18      
Apr 07 13:53 SW 5 10 Clear CLR 67 30     25%     30.22 30.21      
Apr 07 12:53 WSW 6 10 Clear CLR 66 33     29%     30.25 30.24      
Apr 07 11:53 WSW 7 10 Clear CLR 62 34     35%     30.27 30.27      
Apr 07 10:53 S 7 10 Clear CLR 60 35     39%     30.29 30.28      
Apr 07 09:53 Calm 10 Clear CLR 58 37     46%     30.29 30.28      
Apr 07 08:53 WSW 6 10 Clear CLR 51 43     74%     30.29 30.28      
Apr 07 07:53 Calm 10 Clear CLR 45 40     82%     30.27 30.26      
Apr 07 06:53 Calm 10 Clear CLR 41 39     93%     30.25 30.24      
Apr 07 05:53 NNW 3 10 Clear CLR 41 39     93% 39   30.24 30.23      
Apr 07 04:53 Calm 10 Clear CLR 43 41     93%     30.21 30.21      
Apr 07 03:53 Calm 10 Clear CLR 43 36     76%     30.22 30.21      
Apr 07 02:53 WNW 3 10 Clear CLR 44 39     82% 43   30.23 30.23      
Apr 07 01:53 N 3 10 Clear CLR 45 39     80% 44   30.23 30.23      
Apr 07 00:53 SW 3 10 Clear CLR 49 35     59% 48   30.23 30.22      
Apr 06 23:53 N 3 10 Clear CLR 50 37     61% 49   30.22 30.21      
Apr 06 22:53 NNW 3 10 Clear CLR 52 37     57%     30.2 30.2      
Apr 06 21:53 NNW 3 10 Clear CLR 55 35     47%     30.19 30.18      
Apr 06 20:53 Calm 10 Clear CLR 60 30     32%     30.16 30.16      
Apr 06 19:53 NNW 6 10 Clear CLR 63 28     27%     30.14 30.13      
Apr 06 18:53 NW 8 10 Clear CLR 66 28     24%     30.13 30.12      
Apr 06 17:53 NW 11 10 Clear CLR 68 26     21%     30.12 30.11      
Apr 06 16:53 WNW 15 10 Clear CLR 68 29     23%     30.12 30.11      
Apr 06 15:53 NW 10 10 Clear CLR 69 31     24%     30.13 30.13      
Apr 06 14:53 WNW 13 10 Clear CLR 68 31     25%     30.15 30.14      
Apr 06 13:53 NW 14 10 Clear CLR 67 31     26%     30.16 30.16      
Apr 06 12:53 NNW 11 10 Mostly Clear FEW070 65 36     34%     30.19 30.18      
Apr 06 11:53 WNW 8 10 Mostly Clear FEW060 61 36     39%     30.2 30.19      
Apr 06 10:53 NW 8 10 Clear CLR 60 37     42%     30.21 30.2      
Apr 06 09:53 W 5 10 Clear CLR 56 40     55%     30.2 30.19      
Apr 06 08:53 NW 6 10 Clear CLR 52 41     66%     30.19 30.18      
Apr 06 07:53 NW 3 10 Clear CLR 48 42     80% 47   30.16 30.16      
Apr 06 06:53 WNW 5 10 Clear CLR 45 41     86% 43   30.13 30.12      
Apr 06 05:53 WNW 3 10 Clear CLR 45 42     90% 44   30.1 30.09      
Apr 06 04:53 Calm 10 Clear CLR 45 42     90%     30.07 30.06      
Apr 06 03:53 Calm 10 Clear CLR 46 41     82%     30.03 30.03      
Apr 06 02:53 SW 3 10 Clear CLR 47 41     80% 46   30.03 30.02      
Apr 06 01:53 SW 6 10 Clear CLR 50 40     68% 48   30.02 30.02      
Apr 06 00:53 SW 6 10 Clear CLR 50 40     68% 48   30.01 30      
Apr 05 23:53 Calm 10 Clear CLR 51 41     68%     30 29.99      
Apr 05 22:53 WSW 7 10 Clear CLR 52 41     66%     30 29.99      
Apr 05 21:53 W 6 10 Clear CLR 54 42     64%     29.99 29.98      
Apr 05 20:53 W 7 10 Clear CLR 55 41     59%     29.97 29.96      
Apr 05 19:53 W 6 10 Clear CLR 57 41     55%     29.94 29.93      
Apr 05 18:53 WNW 14 10 Mostly Clear FEW060 60 40     47%     29.92 29.91     0
Apr 05 17:53 WNW 16 10 Clear CLR 60 41     49%     29.9 29.89      
Apr 05 16:53 NW 16 10 Mostly Cloudy SCT042 BKN055 60 43     53%     29.87 29.86 0    
Apr 05 15:53 WNW 16 10 Light Rain BKN035 BKN044 BKN065 57 44     62%     29.86 29.85 0 0  
Apr 05 14:53 W 11 10 Clear   57 45     64%     29.85 29.84      
Apr 05 14:16 W 16 10 Cloudy FEW026 BKN033 OVC044 54 45     72%     29.85        
Apr 05 14:09 W 16 10 Cloudy BKN029 OVC033 54 45     72%     29.85        
Apr 05 13:53 W 11 10 Cloudy OVC034 55 45     69%     29.83 29.83      
Apr 05 12:53 WNW 14 10 Cloudy FEW026 BKN042 OVC050 58 46     65%     29.8 29.79      
Apr 05 11:53 W 14 10 Cloudy BKN032 OVC039 55 45     69%     29.79 29.77      
Apr 05 10:53 W 14 10 Cloudy BKN030 OVC036 56 45     67%     29.76 29.75      
Apr 05 10:48 W 13 10 Cloudy BKN029 OVC035 55 46     72%     29.76        
Apr 05 10:39 W 10 10 Cloudy SCT027 OVC033 55 45     69%     29.76        
Apr 05 10:16 W 16 10 Cloudy OVC029 55 46     72%     29.75        
Apr 05 09:53 WSW 17 10 Cloudy OVC030 54 45     72%     29.74 29.72      
Apr 05 08:53 W 11 10 Mostly Cloudy BKN032 54 46     74%     29.72 29.7      
Apr 05 08:19 W 13 10 Partly Cloudy FEW023 SCT029 54 48     80%     29.71        
Apr 05 08:07 W 9 10 Mostly Cloudy FEW018 BKN024 BKN030 54 49     83%     29.71        
Apr 05 07:53 W 7 10 Cloudy SCT024 BKN030 OVC035 55 51     86%     29.7 29.69      
Apr 05 07:30 W 11 10 Mostly Cloudy BKN030 BKN037 56 53     90%     29.69        
Apr 05 07:17 W 9 10 Mostly Cloudy BKN028 56 53     90%     29.68        
Apr 05 06:53 W 6 10 Partly Cloudy SCT023 56 54     93%     29.68 29.66     0
Apr 05 06:36 W 8 10 Partly Cloudy SCT014 57 54     89%     29.68        
Apr 05 06:26 W 9 10 Mostly Cloudy BKN015 57 55     93%     29.67        
Apr 05 05:53 WSW 9 10 Clear CLR 58 54     87%     29.66 29.65      
Apr 05 04:53 Calm 10 Clear   56 56     100%     29.64 29.62      
Apr 05 03:53 Calm 10 Mostly Clear FEW080 57 57     100%     29.64 29.62 0 0  
Apr 05 02:53 Calm 10 Light Rain FEW050 SCT070 BKN095 59 57     93%     29.68 29.66 0    
Apr 05 02:16 N 6 10 Light Rain SCT050 BKN070 OVC085 60 57     90%     29.69   0    
Apr 05 01:53 W 7 6 Thunderstorms and Rain SCT070 BKN090 61 56     83%     29.74 29.72 0    
Apr 05 01:41 NW 3 10 Thunderstorms BKN090 62 56     80%     29.68   0    
Apr 05 00:53 WNW 10 10 Mostly Cloudy FEW075 BKN095 64 57     78%     29.71 29.69 0   0
Apr 05 00:41 N 7 10 Mostly Cloudy BKN095 65 57     76%     29.66   0    
Apr 05 00:16 6 10 Cloudy OVC090 71 52     51%   70 29.67        
Apr 04 23:53 WNW 7 10 Mostly Cloudy BKN095 75 53     46%   74 29.67 29.65      
Apr 04 22:53 6 10 Clear CLR 74 55     52%   73 29.62 29.6      
Apr 04 21:53 SSE 3 10 Clear CLR 75 54     48%   74 29.63 29.61      
Apr 04 20:53 SSE 11 10 Clear CLR 78 53     42%   78 29.62 29.61      
Apr 04 19:53 S 9 10 Clear CLR 79 54     42%   79 29.63 29.61      
Apr 04 18:53 SSW 7 10 Clear CLR 81 55     41%   81 29.64 29.62      
Apr 04 17:53 S 9 10 Partly Cloudy SCT070 83 56     40%   82 29.65 29.63      
Apr 04 16:53 SSE 9 10 Mostly Cloudy BKN070 84 57     40%   83 29.65 29.64      
Apr 04 15:53 SW 8 10 Clear CLR 83 57     41%   82 29.67 29.65      
Apr 04 14:53 SSE 9 10 Clear CLR 82 58     44%   82 29.69 29.67      
Apr 04 13:53 S 9 10 Clear CLR 80 57     45%   80 29.72 29.71      
Apr 04 12:53 S 9 10 Clear CLR 79 57     47%   79 29.75 29.74      
Apr 04 11:53 S 8 10 Clear CLR 76 55     48%   75 29.77 29.76      
Apr 04 10:53 5 10 Clear CLR 72 58     61%   72 29.79 29.78      
Apr 04 08:53 ENE 6 10 Clear CLR 59 56     90%     29.8 29.79      
Apr 04 07:53 Calm 10 Clear CLR 53 52     96%     29.79 29.78      
Apr 04 06:53 NW 5 10 Clear CLR 51 50     96%     29.78 29.76      
Apr 04 05:53 NW 3 10 Clear CLR 51 50     96%     29.76 29.75      
Apr 04 04:53 Calm 10 Clear CLR 53 52     96%     29.76 29.74      
Apr 04 03:53 Calm 10 Clear CLR 53 51     93%     29.76 29.74      
Apr 04 02:53 Calm 10 Clear CLR 54 52     93%     29.75 29.74      
Apr 04 01:53 Calm 10 Clear CLR 54 53     97%     29.75 29.74      
Apr 04 00:53 Calm 10 Clear CLR 55 53     93%     29.74 29.73      
Apr 03 23:53 Calm 10 Clear CLR 56 52     87%     29.74 29.73      
Apr 03 22:53 Calm 10 Clear CLR 58 53     84%     29.73 29.72      
Apr 03 21:53 Calm 10 Clear CLR 60 53     78%     29.71 29.7      
Apr 03 20:53 W 3 10 Clear CLR 68 53     59%     29.69 29.67      
Apr 03 19:53 WSW 6 10 Clear CLR 69 52     54%     29.66 29.65      
Apr 03 18:53 WSW 11 10 Clear CLR 73 52     48%   72 29.64 29.62      
Apr 03 17:53 W 14 10 Clear CLR 75 51     43%   74 29.61 29.59      
Apr 03 16:53 WSW 13 10 Partly Cloudy SCT055 76 53     45%   75 29.61 29.59      
Apr 03 15:53 SW 17 10 Clear CLR 75 53     46%   74 29.61 29.59      
Apr 03 14:53 WSW 16 10 Clear   74 55     52%   73 29.61 29.59      
Apr 03 13:53 SW 16 10 Mostly Cloudy FEW042 BKN055 73 56     55%   73 29.62 29.6      
Apr 03 12:53 W 9 10 Mostly Cloudy BKN035 BKN045 70 56     61%     29.63 29.61     0
Apr 03 11:53 W 13 10 Mostly Cloudy SCT029 BKN035 67 56     68%     29.64 29.62      
Apr 03 10:53 WSW 10 10 Mostly Cloudy FEW017 FEW023 BKN090 66 59     78%     29.63 29.62      
Apr 03 09:53 WSW 14 10 Cloudy BKN016 BKN022 OVC030 63 60     90%     29.62 29.61 0 0  
Apr 03 09:09 SW 7 8 Light Rain FEW010 BKN014 OVC027 62 60     93%     29.62   0    
Apr 03 09:01 SW 7 8 Light Rain FEW010 BKN019 OVC025 62 60     93%     29.62   0    
Apr 03 08:53 SW 9 10 Cloudy BKN014 BKN025 OVC033 62 60     93%     29.61 29.6 0    
Apr 03 08:51 SW 9 10 Light Rain BKN014 BKN025 OVC031 63 61     94%     29.61   0    
Apr 03 08:43 SSW 8 10 Cloudy SCT012 BKN017 OVC039 62 60     93%     29.61   0    
Apr 03 08:33 SSW 6 10 Cloudy SCT014 BKN032 OVC041 62 60     93%     29.61   0    
Apr 03 08:09 SW 5 8 Cloudy FEW011 BKN025 OVC039 61 60     97%     29.61   0    
Apr 03 07:53 SSW 6 6 Light Rain and Fog/Mist SCT007 BKN012 OVC027 61 60     97%     29.6 29.59 0    
Apr 03 06:53 SSW 7 10 Cloudy OVC007 61 60     97%     29.58 29.57      
Apr 03 06:02 SW 3 6 Fog/Mist OVC006 60 60     100%     29.57        
Apr 03 05:53 SSW 6 4 Fog/Mist OVC004 60 60     100%     29.57 29.56      
Apr 03 05:41 S 8 3 Fog/Mist OVC004 60 60     100%     29.59        
Apr 03 04:53 S 7 10 Cloudy OVC008 61 60     97%     29.59 29.58      
Apr 03 04:33 S 8 10 Cloudy BKN008 OVC013 61 60     97%     29.59        
Apr 03 04:04 S 5 10 Cloudy SCT007 BKN013 OVC039 61 60     97%     29.61        
Apr 03 03:53 S 5 6 Fog/Mist BKN007 OVC013 61 60     97%     29.61 29.59      
Apr 03 02:53 SSE 6 10 Cloudy BKN007 OVC012 61 61     100%     29.57 29.56      
Apr 03 02:31 ESE 8 4 Fog/Mist OVC007 61 61     100%     29.59        
Apr 03 02:23 SE 6 4 Fog/Mist BKN002 OVC009 61 61     100%     29.61        
Apr 03 02:16 SE 6 4 Fog/Mist SCT002 BKN006 OVC013 61 61     100%     29.61        
Apr 03 02:03 SE 5 2.5 Fog/Mist OVC002 61 61     100%     29.61        
Apr 03 01:53 ESE 6 1.75 Fog/Mist OVC002 61 61     100%     29.61 29.59      
Apr 03 01:33 ESE 3 1.75 Fog/Mist OVC003 61 61     100%     29.61        
Apr 03 01:16 ESE 5 2 Fog/Mist OVC004 60 60     100%     29.62        
Apr 03 00:53 E 6 1.75 Fog/Mist OVC004 60 60     100%     29.63 29.61      
Apr 03 00:28 ESE 6 1.75 Fog/Mist OVC006 60 60     100%     29.64        
Apr 03 00:19 ESE 5 2 Fog/Mist OVC007 61 60     97%     29.64        
Apr 02 23:53 Calm 10 Cloudy OVC008 61 60     97%     29.64 29.62      
Apr 02 22:53 SE 3 10 Cloudy OVC009 61 60     97%     29.69 29.68      
Apr 02 22:09 ENE 6 10 Cloudy OVC009 61 60     97%     29.67        
Apr 02 21:53 ESE 5 10 Cloudy OVC010 61 60     97%     29.69 29.68      
Apr 02 20:53 ESE 6 10 Cloudy OVC013 61 59     93%     29.68 29.67      
Apr 02 19:53 ESE 7 10 Cloudy OVC013 61 59     93%     29.68 29.67      
Apr 02 19:26 SE 8 10 Cloudy OVC013 61 59     93%     29.69        
Apr 02 19:13 Calm 10 Mostly Cloudy BKN017 61 59     93%     29.68        
Apr 02 18:53 SSE 5 10 Clear CLR 61 59     93%     29.67 29.65     1
Apr 02 18:33 E 7 10 Partly Cloudy SCT013 61 59     93%     29.65        
Apr 02 17:53 E 9 10 Cloudy BKN010 OVC016 60 59     96%     29.68   0    
Apr 02 17:20   8 Light Rain BKN006 BKN039 OVC110 59 59     100%     29.64   0    
Apr 02 17:04   3 Rain and Fog/Mist SCT005 BKN041 OVC100 59 59     100%     29.69   0    
Apr 02 17:00   2.5 Rain and Fog/Mist BKN005 BKN041 OVC085 60 60     100%     29.77   0    
Apr 02 16:53 E 9 2 Thunderstorms and Rain and Fog/Mist BKN005 BKN009 OVC075 61 60     97%     29.8 29.79 0    
Apr 02 16:46 E 10 2.5 Thunderstorms and Rain and Fog/Mist SCT005 BKN009 OVC075 60 59     96%     29.81   0    
Apr 02 16:34 5 2 Thunderstorms and Rain and Fog/Mist FEW007 BKN075 OVC090 60 60     100%     29.82   0    
Apr 02 16:25 E 10 3 Thunderstorms and Rain and Fog/Mist FEW007 BKN080 OVC095 60 59     96%     29.81   0    
Apr 02 16:15 ENE 7 3 Rain and Fog/Mist BKN075 OVC095 60 59     96%     29.82   0    
Apr 02 16:00 ENE 13 3 Thunderstorms and Rain and Fog/Mist BKN075 OVC095 60 59     96%     29.81   0    
Apr 02 15:53 ENE 13 4 Rain and Fog/Mist BKN075 OVC090 61 60     97%     29.81 29.8 0 1  
Apr 02 15:41   3 Rain and Fog/Mist BKN075 OVC095 61 59     93%     29.82   0    
Apr 02 15:27 E 9 2.5 Thunderstorms and Rain and Fog/Mist FEW050 BKN070 OVC090 61 60     97%     29.84   0    
Apr 02 15:17 E 8 4 Rain and Fog/Mist SCT070 OVC090 62 60     93%     29.86   0    
Apr 02 14:53 E 9 3 Thunderstorms and Rain and Fog/Mist BKN070 OVC085 62 60     93%     29.86 29.85 0    
Apr 02 14:17 E 3 5 Thunderstorms and Rain and Fog/Mist FEW050 BKN065 OVC090 62 61     96%     29.89   0    
Apr 02 14:06 Calm 4 Light Rain and Fog/Mist FEW050 BKN100 OVC110 62 61     96%     29.89   0    
Apr 02 13:53 Calm 5 Thunderstorms and Rain and Fog/Mist FEW050 OVC100 62 61     96%     29.9 29.89 0    
Apr 02 13:51 Calm 5 Thunderstorms and Rain and Fog/Mist OVC100 63 61     94%     29.9   0    
Apr 02 13:43 Calm 5 Light Rain and Fog/Mist OVC100 62 61     96%     29.89   0    
Apr 02 13:28 SE 3 5 Thunderstorms and Rain FEW075 OVC100 64 59     84%     29.89   0    
Apr 02 12:53 E 3 10 Mostly Clear FEW110 65 58     78%     29.88 29.86 0   0
Apr 02 12:22 ESE 6 10 Light Rain SCT120 66 56     70%     29.91   0    
Apr 02 12:04 ESE 9 10 Thunderstorms FEW110 69 54     59%     29.89        
Apr 02 11:53 E 9 10 Clear CLR 69 54     59%     29.89 29.87      
Apr 02 10:53 E 10 10 Clear CLR 68 55     63%     29.91 29.89      
Apr 02 09:53 E 9 10 Clear CLR 63 52     67%     29.96 29.94      
Apr 02 08:53 E 10 10 Clear CLR 60 52     75%     29.96 29.95      
Apr 02 07:53 E 7 10 Mostly Clear FEW070 57 51     81%     30.01 29.99      
Apr 02 06:53 E 8 10 Clear CLR 57 51     81%     30 29.99      
Apr 02 05:53 E 8 10 Clear CLR 58 51     78%     30.01 30      
Apr 02 04:53 E 6 10 Clear CLR 58 51     78%     30 29.99      
Apr 02 03:53 E 8 10 Partly Cloudy SCT070 58 51     78%     30 29.99      
Apr 02 02:53 E 8 10 Clear CLR 59 52     78%     30 29.99      
Apr 02 01:53 E 8 10 Mostly Clear FEW075 60 52     75%     30.01 29.99      
Apr 02 00:53 E 9 10 Mostly Clear FEW075 61 52     72%     30.03 30.01      
Apr 01 23:53 E 11 10 Partly Cloudy SCT075 63 53     70%     30.03 30.02      
Apr 01 22:53   10 Clear CLR 65 53     65%     30.02 30.01      
Apr 01 21:53   10 Clear CLR 65 54     68%     30.03 30.02      
Apr 01 20:53 ENE 14 10 Clear CLR 67 54     63%     30.02 30.01      
Apr 01 19:53 E 9 10 Clear CLR 69 55     61%     30.02 30.01      
Apr 01 18:53 E 10 10 Clear CLR 71 55     57%   71 30.01 30      
Apr 01 17:53 ESE 10 10 Clear CLR 73 55     53%   73 29.99 29.97      
Apr 01 16:53 ESE 11 10 Clear   75 55     50%   75 30 29.98      
Apr 01 15:53 ESE 11 10 Clear CLR 76 55     48%   75 30.02 30      
Apr 01 14:53 ESE 10 10 Clear CLR 74 54     50%   73 30.04 30.02      
Apr 01 13:53 E 9 10 Clear CLR 73 54     51%   72 30.06 30.05      
Apr 01 12:53 SE 10 10 Clear CLR 70 54     57%     30.08 30.07      
Apr 01 11:53 E 8 10 Clear CLR 67 52     59%     30.1 30.09      
Apr 01 10:53 E 10 10 Clear CLR 63 51     65%     30.12 30.1      
Apr 01 09:53 E 11 10 Clear CLR 60 51     72%     30.12 30.11      
Apr 01 08:53 ENE 14 10 Clear CLR 57 50     77%     30.1 30.09      
Apr 01 07:53 E 8 10 Clear CLR 54 50     86%     30.07 30.06      
Apr 01 06:53   10 Clear CLR 54 51     90%     30.04 30.03      
Apr 01 05:53 E 8 10 Clear CLR 56 51     84%     30.03 30.01      
Apr 01 04:53 E 9 10 Clear CLR 57 51     81%     30 29.99      
Apr 01 03:53 E 6 10 Clear CLR 59 51     75%     29.99 29.98      
Apr 01 02:53 E 9 10 Clear CLR 59 51     75%     29.98 29.96      
Apr 01 01:53 E 9 10 Clear CLR 61 50     67%     29.97 29.96      
Apr 01 00:53 E 8 10 Clear CLR 60 51     72%     29.95 29.94      
Mar 31 23:53 E 7 10 Clear CLR 61 51     70%     29.94 29.93      
Mar 31 22:53 E 6 10 Clear CLR 63 51     65%     29.93 29.92      
Mar 31 21:53 E 7 10 Clear CLR 63 52     67%     29.91 29.9      
Mar 31 20:53 E 7 10 Clear CLR 65 53     65%     29.88 29.87      
Mar 31 19:53 ENE 5 10 Clear CLR 69 52     54%     29.87 29.86      
Mar 31 18:53 SE 7 10 Clear CLR 75 51     43%   74 29.85 29.84      
Mar 31 17:53 SSE 5 10 Clear CLR 76 50     40%   75 29.84 29.83      
Mar 31 16:53 S 7 10 Clear CLR 77 51     40%   76 29.84 29.83      
Mar 31 15:53 3 10 Clear CLR 75 50     41%   74 29.85 29.83      
Mar 31 14:53 WSW 5 10 Clear CLR 73 49     43%   72 29.86 29.85      
Mar 31 13:53 Calm 10 Clear CLR 71 49     45%   70 29.87 29.86      
Mar 31 11:53 Calm 10 Clear CLR 63 47     56%     29.92 29.91      
Mar 31 10:53 SSW 3 10 Clear CLR 59 47     64%     29.92 29.91      
Mar 31 09:53 Calm 10 Clear CLR 55 46     72%     29.91 29.91      
Mar 31 08:53 Calm 10 Clear CLR 52 47     83%     29.89 29.88      
Mar 31 07:53 Calm 10 Clear CLR 47 45     93%     29.86 29.86      
Mar 31 06:53 W 3 10 Clear CLR 44 43     96% 43   29.86 29.85      
Mar 31 05:53 Calm 10 Clear CLR 46 44     93%     29.85 29.84      
Mar 31 04:53 Calm 10 Clear CLR 47 45     93%     29.83 29.82      
Mar 31 03:53 W 3 10 Clear CLR 47 45     93% 46   29.81 29.81      
Mar 31 02:53 Calm 10 Clear CLR 48 46     93%     29.8 29.79      
Mar 31 01:53 Calm 10 Clear CLR 48 46     93%     29.79 29.78      
Mar 31 00:53 Calm 10 Clear CLR 49 47     93%     29.8 29.79      
Mar 30 23:53 Calm 10 Clear CLR 51 47     86%     29.79 29.78      
Mar 30 22:53 Calm 10 Clear CLR 52 47     83%     29.79 29.78      
Mar 30 21:53 NNW 3 10 Clear CLR 54 48     80%     29.77 29.76      
Mar 30 20:53 NW 3 10 Clear   58 48     70%     29.75 29.74      
Mar 30 19:53 W 3 10 Cloudy OVC050 59 46     62%     29.74 29.73      
Mar 30 18:53 WSW 7 10 Cloudy OVC049 59 46     62%     29.73 29.72      
Mar 30 17:53 W 8 10 Clear   59 45     60%     29.74 29.72      
Mar 30 16:53 WSW 13 10 Cloudy OVC042 59 46     62%     29.73 29.72      
Mar 30 15:53 WSW 11 10 Cloudy OVC040 58 45     62%     29.73 29.72      
Mar 30 14:53 W 13 10 Cloudy OVC039 59 44     58%     29.74 29.72      
Mar 30 13:53 WSW 11 10 Cloudy OVC039 59 44     58%     29.74 29.72      
Mar 30 12:53 WSW 9 10 Cloudy OVC036 57 44     62%     29.74 29.73      
Mar 30 11:53 WSW 8 10 Clear   56 44     64%     29.76 29.74      
Mar 30 10:53 WSW 11 10 Cloudy OVC030 55 44     66%     29.77 29.76      
Mar 30 09:53 WSW 8 10 Mostly Cloudy BKN028 54 44     69%     29.75 29.74      
Mar 30 08:53 W 11 10 Mostly Cloudy FEW020 BKN027 54 45     72%     29.73 29.72      
Mar 30 07:53 WSW 15 10 Mostly Clear FEW017 54 49     83%     29.73 29.72      
Mar 30 07:44 WSW 11 10 Mostly Clear FEW017 54 49     83%     29.73        
Mar 30 07:05 WSW 11 10 Cloudy SCT014 BKN020 OVC080 57 53     87%     29.72        
Mar 30 06:53 WSW 8 10 Cloudy FEW014 OVC090 57 54     89%     29.72 29.7      
Mar 30 05:53   10 Cloudy FEW009 OVC090 60 57     90%     29.69 29.67      
Mar 30 05:15 WSW 7 10 Mostly Cloudy SCT008 BKN080 60 59     96%     29.68        
Mar 30 04:53 W 6 10 Mostly Cloudy BKN008 61 60     97%     29.67 29.65      
Mar 30 04:38 WSW 7 10 Mostly Cloudy BKN008 61 60     97%     29.68        
Mar 30 04:01 WSW 5 10 Partly Cloudy FEW008 SCT016 61 60     97%     29.68        
Mar 30 03:53 W 3 10 Mostly Cloudy SCT011 BKN016 62 61     96%     29.68 29.66      
Mar 30 03:29 3 10 Mostly Cloudy BKN011 62 61     96%     29.68        
Mar 30 02:53 3 10 Clear CLR 62 60     93%     29.68 29.66      
Mar 30 01:53 Calm 10 Mostly Cloudy BKN100 64 61     90%     29.71 29.69      
Mar 30 00:53 3 10 Cloudy OVC085 65 61     87%     29.73 29.71 0   0
Mar 29 23:53 6 10 Cloudy SCT031 BKN043 OVC110 69 63     81%     29.72 29.7 0    
Mar 29 23:41 WSW 7 10 Light Rain FEW033 BKN043 OVC090 69 63     81%     29.74   0    
Mar 29 23:11 W 10 9 Thunderstorms and Rain BKN090 OVC110 70 64     81%     29.75   0    
Mar 29 22:53 S 9 10 Mostly Cloudy FEW070 FEW090 BKN110 71 66     84%   72 29.74 29.72      
Mar 29 22:34 5 10 Mostly Clear FEW028 FEW070 69 66     90%     29.71        
Mar 29 21:53 3 10 Partly Cloudy SCT039 SCT055 67 66     97%     29.72 29.71 0 0  
Mar 29 21:38 Calm 10 Mostly Cloudy FEW019 SCT038 BKN045 68 66     93%     29.73   0    
Mar 29 21:25 S 6 6 Thunderstorms and Rain and Fog/Mist FEW033 SCT040 OVC047 69 66     90%     29.72   0    
Mar 29 21:14 SE 3 2.5 Thunderstorms and Heavy Rain and Fog/Mist FEW022 SCT035 OVC049 69 65     87%     29.73   0    
Mar 29 20:53 Calm 10 Cloudy BKN050 OVC065 72 63     73%   72 29.73 29.71      
Mar 29 20:37 Calm 10 Cloudy FEW036 BKN045 OVC070 72 63     73%   72 29.73        
Mar 29 20:29 SSW 6 10 Cloudy FEW036 BKN045 OVC065 73 63     71%   73 29.74        
Mar 29 20:13 S 6 10 Thunderstorms FEW038 BKN060 OVC110 73 63     71%   73 29.74        
Mar 29 19:53 5 10 Cloudy SCT042 BKN065 OVC110 74 63     69%   74 29.73 29.71 0    
Mar 29 19:48 7 10 Cloudy SCT042 BKN060 OVC120 75 63     65%   75 29.73   0    
Mar 29 18:53 S 13 10 Cloudy SCT048 BKN065 OVC080 77 61     58%   77 29.74 29.72      
Mar 29 17:53 S 9 10 Cloudy OVC055 78 60     54%   78 29.73 29.72      
Mar 29 16:53 S 10 10 Mostly Cloudy FEW050 BKN065 BKN080 78 61     56%   78 29.73 29.71      
Mar 29 15:53 S 15 10 Mostly Cloudy FEW045 SCT050 BKN080 78 63     60%   78 29.75 29.73      
Mar 29 14:53 S 11 10 Cloudy BKN035 OVC045 77 63     62%   77 29.78 29.76      
Mar 29 13:53 SSE 16 10 Mostly Clear FEW035 FEW100 75 62     64%   75 29.79 29.78      
Mar 29 12:53 S 11 10 Clear CLR 72 60     66%   72 29.81 29.79     0
Mar 29 11:53 SE 13 10 Clear CLR 72 63     73%   72 29.8 29.78      
Mar 29 10:53 SSE 11 10 Clear CLR 69 64     84%     29.85 29.83      
Mar 29 09:53 E 9 6 Fog/Mist FEW070 SCT095 BKN110 65 64     97%     29.84 29.82 0 0  
Mar 29 09:31 ENE 7 4 Light Rain and Fog/Mist FEW055 BKN075 OVC100 64 63     96%     29.86   0    
Mar 29 09:18 NNE 5 5 Light Rain and Fog/Mist FEW016 BKN075 OVC100 64 63     96%     29.87   0    
Mar 29 09:05 SSW 6 2 Thunderstorms and Rain and Fog/Mist FEW011 BKN043 OVC070 64 63     96%     29.9   0    
Mar 29 09:00 SW 9 1.5 Thunderstorms and Rain and Fog/Mist SCT011 BKN021 OVC070 64 63     96%     29.9   0    
Mar 29 08:56 SW 10 1.75 Heavy Rain and Fog/Mist BKN011 BKN021 OVC070 64 62     93%     29.91   0    
Mar 29 08:53   4 Light Rain and Fog/Mist BKN011 BKN021 OVC070 65 62     90%     29.9   0    
Mar 29 08:20 ESE 9 10 Cloudy BKN012 OVC095 64 61     90%     29.85        
Mar 29 07:53   10 Mostly Cloudy FEW012 BKN110 63 60     90%     29.83 29.81      
Mar 29 07:02 E 13 10 Cloudy SCT020 BKN070 OVC120 62 59     90%     29.85        
Mar 29 06:53 E 10 10 Cloudy BKN022 BKN070 OVC120 62 59     90%     29.86 29.84      
Mar 29 06:41 E 10 10 Mostly Cloudy BKN022 BKN100 61 59     93%     29.86        
Mar 29 05:53 ESE 5 10 Cloudy BKN070 OVC090 61 58     90%     29.86        
Mar 29 04:53 E 13 10 Clear CLR 62 58     86%     29.8 29.78      
Mar 29 03:53 E 7 10 Mostly Clear FEW055 63 58     84%     29.83 29.82      
Mar 29 02:53 ESE 9 10 Partly Cloudy FEW055 SCT075 65 58     78%     29.86 29.84      
Mar 29 01:53 ESE 9 10 Mostly Cloudy SCT034 BKN055 BKN080 66 59     78%     29.87 29.86      
Mar 29 00:53 ESE 9 10 Mostly Cloudy FEW043 SCT050 BKN070 67 60     79%     29.88 29.86      
Mar 28 23:53 E 10 10 Mostly Cloudy FEW041 FEW055 BKN085 67 60     79%     29.87 29.85      
Mar 28 22:53 E 14 10 Clear   68 60     76%     29.88 29.87      
Mar 28 21:53   10 Cloudy FEW065 OVC085 70 61     73%     29.88 29.87      
Mar 28 20:53 E 13 10 Mostly Cloudy BKN075 71 62     73%   71 29.88 29.87      
Mar 28 19:53 E 11 10 Clear CLR 72 62     71%   72 29.86 29.85      
Mar 28 18:53 E 9 10 Mostly Cloudy SCT039 BKN060 74 62     66%   74 29.87 29.85      
Mar 28 17:53 E 10 10 Cloudy BKN038 OVC046 75 62     64%   75 29.87 29.85      
Mar 28 16:53 SE 8 10 Cloudy OVC042 77 61     58%   77 29.88 29.87      
Mar 28 15:53 ESE 7 10 Cloudy OVC038 76 61     60%   76 29.89 29.88      
Mar 28 14:53 ESE 7 10 Cloudy OVC042 76 60     58%   76 29.92 29.9      
Mar 28 13:53 SE 10 10 Clear CLR 75 60     60%   75 29.93 29.92      
Mar 28 12:53 E 6 10 Clear CLR 72 59     64%   72 29.98 29.96      
Mar 28 11:53 SE 6 10 Clear CLR 69 58     68%     30 29.99      
Mar 28 10:53 ENE 7 10 Partly Cloudy SCT040 66 57     73%     30.01 30